Weather reports worldwide

Advertisment
Coleshill, United Kingdom (3535): temperature & dewpoint: 15.05.2019 04:00:00 - 21.05.2019 04:00:00 (BST)Coleshill, United Kingdom (3535): temperature -20cm & temperature -100cm: 15.05.2019 04:00:00 - 21.05.2019 04:00:00 (BST)Coleshill, United Kingdom (3535): wind speed: 15.05.2019 04:00:00 - 21.05.2019 04:00:00 (BST)Coleshill, United Kingdom (3535): wind direction: 15.05.2019 04:00:00 - 21.05.2019 04:00:00 (BST)Coleshill, United Kingdom (3535): reduced air pressure: 15.05.2019 04:00:00 - 21.05.2019 04:00:00 (BST)Coleshill, United Kingdom (3535): visibility: 15.05.2019 04:00:00 - 21.05.2019 04:00:00 (BST)Coleshill, United Kingdom (3535): precipitation: 15.05.2019 04:00:00 - 21.05.2019 04:00:00 (BST)
Date & Time tt [°C] td [°C] tt -20cm [°C] tt -100cm [°C] ff [km/h] ff [kn] dd ppp [hPa] vv [km] rr [mm]
21.05.2019 04:00:00 7,7 6,6 - - 9 5 WNW 1017,6 12 0,0
21.05.2019 03:00:00 8,0 6,7 - - 13 7 WNW 1017,4 13 0,0
21.05.2019 02:00:00 8,1 6,2 - - 9 5 WNW 1017,2 18 0,0
21.05.2019 01:00:00 9,1 6,1 - - 9 5 WNW 1017,1 30 0,0
21.05.2019 00:00:00 9,7 6,1 - - 11 6 NW 1016,9 35 0,0
20.05.2019 23:00:00 10,5 6,0 - - 11 6 NW 1016,6 45 0,0
20.05.2019 22:00:00 11,7 6,1 - - 11 6 NW 1016,2 50 0,0
20.05.2019 21:00:00 13,2 7,2 - - 15 8 NW 1015,2 45 0,0
20.05.2019 20:00:00 13,8 8,6 - - 13 7 NW 1014,7 45 1,0
20.05.2019 19:00:00 15,5 8,6 - - 11 6 NNW 1014,0 50 0,0
20.05.2019 18:00:00 16,1 8,0 - - 8 4 NW 1013,7 45 0,0
20.05.2019 17:00:00 17,5 8,1 - - 4 2 N 1013,5 35 0,0
20.05.2019 16:00:00 17,4 11,0 - - 11 6 N 1013,6 45 0,0
20.05.2019 15:00:00 16,0 9,2 - - 11 6 NW 1013,6 23 0,0
20.05.2019 14:00:00 15,2 8,5 - - 9 5 NNW 1013,6 50 0,0
20.05.2019 13:00:00 15,3 8,8 - - 13 7 NW 1013,5 35 0,0
20.05.2019 12:00:00 15,2 8,9 - - 11 6 NNW 1013,3 35 0,0
20.05.2019 11:00:00 14,5 9,0 - - 15 8 NW 1013,3 21 0,0
20.05.2019 10:00:00 13,1 9,2 13,7 12,0 13 7 NW 1013,4 28 0,0
20.05.2019 09:00:00 11,7 9,2 - - 16 9 NNW 1013,5 14 0,0
20.05.2019 08:00:00 10,3 8,9 - - 13 7 NNW 1013,3 7 0,0
20.05.2019 07:00:00 9,0 8,3 - - 13 7 NW 1013,0 4,5 0,0
20.05.2019 06:00:00 8,4 8,0 - - 13 7 NNW 1012,6 4,0 0,0
20.05.2019 05:00:00 7,8 7,0 - - 8 4 WNW 1012,5 7 0,0
20.05.2019 04:00:00 8,4 7,2 - - 8 4 NW 1012,3 7 0,0
20.05.2019 03:00:00 9,2 7,5 - - 8 4 WNW 1012,2 16 0,0
20.05.2019 02:00:00 9,7 7,8 - - 8 4 NNW 1012,2 18 0,0
20.05.2019 01:00:00 10,1 7,8 - - 9 5 NW 1012,3 30 0,0
20.05.2019 00:00:00 10,0 7,6 - - 8 4 NNW 1012,4 29 0,0
19.05.2019 23:00:00 11,6 8,3 - - 8 4 NW 1012,3 45 0,0
19.05.2019 22:00:00 12,2 8,5 - - 9 5 NW 1012,1 30 0,0
19.05.2019 21:00:00 12,7 9,4 - - 8 4 NNW 1011,5 40 0,0
19.05.2019 20:00:00 13,3 9,6 - - 13 7 NNW 1011,2 35 0,0
19.05.2019 19:00:00 13,4 9,7 - - 9 5 NNW 1010,8 35 0,0
19.05.2019 18:00:00 13,4 10,2 - - 11 6 NW 1010,6 16 0,2
19.05.2019 17:00:00 15,1 9,5 - - 9 5 N 1010,3 20 0,0
19.05.2019 16:00:00 16,9 9,3 - - 11 6 NNE 1010,3 24 0,0
19.05.2019 15:00:00 15,5 10,6 - - 9 5 NNW 1010,5 28 0,0
19.05.2019 14:00:00 14,7 9,7 - - 9 5 NNW 1010,5 22 0,0
19.05.2019 13:00:00 15,3 10,4 - - 11 6 NNW 1010,4 23 0,0
19.05.2019 12:00:00 15,6 10,1 - - 8 4 NNW 1010,4 12 0,0
19.05.2019 11:00:00 14,4 9,6 - - 8 4 NNE 1010,5 18 0,0
19.05.2019 10:00:00 13,5 9,9 13,7 11,9 5 3 NNE 1010,4 26 0,0
19.05.2019 09:00:00 11,9 9,7 - - 9 5 NNW 1010,1 14 0,0
19.05.2019 08:00:00 11,0 9,7 - - 9 5 NNW 1009,9 9 0,0
19.05.2019 07:00:00 9,9 9,3 - - 2 1 NNE 1009,7 6 0,0
19.05.2019 06:00:00 9,5 8,9 - - 4 2 N 1009,4 6 0,0
19.05.2019 05:00:00 9,0 8,4 - - 4 2 NW 1009,3 6 0,0
19.05.2019 04:00:00 9,0 7,9 - - 2 1 NE 1009,0 5 0,0
19.05.2019 03:00:00 9,6 8,5 - - 0 0 N 1008,9 7 0,0
19.05.2019 02:00:00 10,1 8,8 - - 2 1 NE 1008,8 8 0,0
19.05.2019 01:00:00 10,2 8,7 - - 2 1 NE 1008,8 9 0,0
19.05.2019 00:00:00 10,5 8,7 - - 0 0 N 1008,7 9 0,0
18.05.2019 23:00:00 11,1 8,9 - - 0 0 N 1008,7 11 0,0
18.05.2019 22:00:00 11,7 8,6 - - 2 1 ENE 1008,5 14 0,0
18.05.2019 21:00:00 13,1 9,2 - - 4 2 ENE 1008,0 19 0,0
18.05.2019 20:00:00 13,8 9,0 - - 4 2 NE 1007,6 21 0,0
18.05.2019 19:00:00 14,0 8,8 - - 8 4 N 1007,2 27 0,0
18.05.2019 18:00:00 14,7 8,1 - - 8 4 N 1006,9 40 0,0
18.05.2019 17:00:00 14,7 9,2 - - 11 6 N 1006,8 20 0,0
18.05.2019 16:00:00 15,2 9,2 - - 9 5 NNW 1006,7 28 0,0
18.05.2019 15:00:00 14,3 8,5 - - 8 4 NNW 1006,7 25 0,0
18.05.2019 14:00:00 13,6 8,6 - - 8 4 N 1006,7 30 0,0
18.05.2019 13:00:00 13,6 9,0 - - 8 4 NNW 1006,7 22 0,0
18.05.2019 12:00:00 13,2 9,3 - - 8 4 N 1006,7 23 0,0
18.05.2019 11:00:00 12,1 9,4 - - 5 3 N 1006,9 17 0,0
18.05.2019 10:00:00 11,4 9,5 13,2 11,9 8 4 N 1006,8 18 0,0
18.05.2019 09:00:00 10,3 9,4 - - 9 5 NE 1006,9 11 0,0
18.05.2019 08:00:00 9,7 9,5 - - 8 4 NNE 1006,7 4,3 0,4
18.05.2019 07:00:00 9,6 9,4 - - 5 3 N 1006,5 2,3 0,0
18.05.2019 06:00:00 9,4 9,1 - - 8 4 N 1006,4 1,8 0,2
18.05.2019 05:00:00 9,4 8,8 - - 5 3 N 1006,5 0,9 0,2
18.05.2019 04:00:00 9,6 8,5 - - 9 5 NNE 1006,9 3,7 0,0
18.05.2019 03:00:00 9,7 8,1 - - 5 3 NNE 1007,3 12 0,0
18.05.2019 02:00:00 9,9 7,9 - - 9 5 NNE 1007,5 13 0,0
18.05.2019 01:00:00 10,3 8,0 - - 8 4 N 1007,9 10 0,0
18.05.2019 00:00:00 10,2 7,6 - - 5 3 N 1008,0 40 0,0
17.05.2019 23:00:00 10,7 7,4 - - 4 2 N 1008,1 35 0,0
17.05.2019 22:00:00 11,4 7,5 - - 4 2 ENE 1008,2 40 0,0
17.05.2019 21:00:00 12,2 7,2 - - 5 3 E 1008,1 30 0,0
17.05.2019 20:00:00 13,2 6,4 - - 8 4 ENE 1008,0 45 0,0
17.05.2019 19:00:00 13,5 6,6 - - 9 5 NE 1008,1 50 0,0
17.05.2019 18:00:00 13,9 6,2 - - 13 7 ENE 1008,5 40 0,0
17.05.2019 17:00:00 15,5 7,4 - - 16 9 NE 1008,5 50 0,0
17.05.2019 16:00:00 15,0 9,6 - - 11 6 NE 1009,0 27 0,0
17.05.2019 15:00:00 15,4 10,1 - - 15 8 ENE 1009,4 29 0,0
17.05.2019 14:00:00 13,8 9,9 - - 15 8 NE 1009,9 30 0,0
17.05.2019 13:00:00 12,9 10,2 - - 16 9 NNE 1010,1 29 0,0
17.05.2019 12:00:00 11,2 9,3 - - 21 11 NE 1010,6 19 0,0
17.05.2019 11:00:00 9,9 8,6 - - 13 7 NNE 1011,1 13 0,2
17.05.2019 10:00:00 9,8 7,7 13,7 11,7 15 8 NNE 1011,6 30 0,0
17.05.2019 09:00:00 10,1 7,1 - - 16 9 N 1011,8 30 0,0
17.05.2019 08:00:00 9,7 7,2 - - 16 9 NNE 1012,2 35 0,0
17.05.2019 07:00:00 8,8 7,7 - - 16 9 N 1012,8 17 0,0
17.05.2019 06:00:00 8,5 7,6 - - 13 7 N 1013,1 13 0,0
17.05.2019 05:00:00 8,4 7,5 - - 11 6 N 1013,5 10 0,6
17.05.2019 04:00:00 8,7 7,0 - - 11 6 NNE 1014,0 16 0,0
17.05.2019 03:00:00 7,5 6,3 - - 11 6 N 1014,3 15 0,0
17.05.2019 02:00:00 6,1 4,7 - - 11 6 N 1015,1 16 0,0
17.05.2019 01:00:00 6,8 3,8 - - 9 5 NNE 1016,0 30 0,0
17.05.2019 00:00:00 9,3 3,3 - - 11 6 NE 1016,4 50 0,0
16.05.2019 23:00:00 10,4 3,5 - - 11 6 NNE 1016,9 50 0,0
16.05.2019 22:00:00 11,1 2,6 - - 11 6 NE 1017,3 50 0,0
16.05.2019 21:00:00 11,9 2,5 - - 15 8 NE 1017,3 50 0,0
16.05.2019 20:00:00 13,0 4,1 - - 15 8 E 1017,2 50 0,0
16.05.2019 19:00:00 14,5 5,3 - - 16 9 E 1017,1 45 0,0
16.05.2019 18:00:00 16,4 4,5 - - 13 7 E 1017,0 40 0,0
16.05.2019 17:00:00 16,6 4,6 - - 13 7 E 1017,3 35 0,0
16.05.2019 16:00:00 15,5 5,8 - - 15 8 E 1018,0 30 0,0
16.05.2019 15:00:00 17,5 6,9 - - 15 8 E 1018,2 35 0,0
16.05.2019 14:00:00 16,5 6,3 - - 13 7 E 1019,0 30 0,0
16.05.2019 13:00:00 16,0 5,6 - - 13 7 E 1019,9 35 0,0
16.05.2019 12:00:00 15,1 5,5 - - 16 9 ENE 1020,4 29 0,0
16.05.2019 11:00:00 14,5 7,0 - - 13 7 E 1020,9 35 0,0
16.05.2019 10:00:00 12,9 7,1 13,7 11,5 15 8 ENE 1021,5 24 0,0
16.05.2019 09:00:00 11,4 6,9 - - 11 6 ENE 1022,0 26 0,0
16.05.2019 08:00:00 9,5 6,4 - - 8 4 NE 1022,3 15 0,0
16.05.2019 07:00:00 6,6 5,1 - - 5 3 NNE 1022,4 11 0,0
16.05.2019 06:00:00 4,2 3,1 - - 5 3 NNE 1022,8 8 0,0
16.05.2019 05:00:00 5,1 3,7 - - 8 4 NE 1022,7 9 0,0
16.05.2019 04:00:00 5,8 4,0 - - 4 2 ENE 1023,0 12 0,0
16.05.2019 03:00:00 7,6 5,1 - - 5 3 ENE 1022,9 14 0,0
16.05.2019 02:00:00 8,6 5,8 - - 5 3 ENE 1023,2 16 0,0
16.05.2019 01:00:00 9,1 5,7 - - 5 3 E 1023,4 29 0,0
16.05.2019 00:00:00 10,1 6,4 - - 11 6 ESE 1023,7 30 0,0
15.05.2019 23:00:00 10,7 5,7 - - 8 4 E 1023,9 50 0,0
15.05.2019 22:00:00 11,5 6,1 - - 8 4 E 1024,1 50 0,0
15.05.2019 21:00:00 13,9 7,5 - - 9 5 E 1023,9 45 0,0
15.05.2019 20:00:00 16,2 6,8 - - 8 4 ENE 1023,7 35 0,0
15.05.2019 19:00:00 17,0 7,0 - - 5 3 ENE 1023,9 35 0,0
15.05.2019 18:00:00 17,4 7,4 - - 9 5 ENE 1024,2 40 0,0
15.05.2019 17:00:00 18,4 7,1 - - 9 5 E 1024,3 28 0,0
15.05.2019 16:00:00 18,4 6,4 - - 11 6 E 1024,9 35 0,0
15.05.2019 15:00:00 18,4 5,7 - - 8 4 E 1025,6 23 0,0
15.05.2019 14:00:00 17,6 5,8 - - 11 6 E 1026,1 30 0,0
15.05.2019 13:00:00 17,2 5,0 - - 9 5 E 1026,5 29 0,0
15.05.2019 12:00:00 16,2 4,8 - - 9 5 E 1027,1 30 0,0
15.05.2019 11:00:00 16,0 6,2 - - 8 4 E 1027,5 22 0,0
15.05.2019 10:00:00 14,2 5,9 13,0 11,2 4 2 ENE 1028,0 40 0,0
15.05.2019 09:00:00 12,7 4,7 - - 11 6 SE 1028,3 40 0,0
15.05.2019 08:00:00 11,1 5,4 - - 5 3 SE 1028,5 30 0,0
15.05.2019 07:00:00 8,0 4,0 - - 5 3 SSE 1028,9 30 0,0
15.05.2019 06:00:00 5,1 2,9 - - 4 2 ESE 1029,0 50 0,0
15.05.2019 05:00:00 4,7 2,9 - - 4 2 ESE 1029,4 30 0,0
15.05.2019 04:00:00 6,4 4,1 - - 5 3 SSE 1029,4 30 0,0

tt = temperature
td = dewpoint
tt -20cm = temperature -20cm
tt -100cm = temperature -100cm
ff = wind speed
dd = wind direction
ppp = reduced air pressure
vv = visibility
rr = precipitation

Next stations